www.pogodaiklimat.ru

Погода и климат >> Архив погоды >> Австралия >> Новый Южный Уэльс >> Эванс Хед


ПОГОДА в Эванс Хед

  • Прогноз погоды в Эванс Хед
  • Монитор погоды в Эванс Хед

АРХИВ ПОГОДЫ в Эванс Хед

Время (UTC), дата Ветер
(напр.,м/с)
 
Видим.   Явления Облачность Т
(С)
Тd
(С)
f
(%)
Тe
(С)
Тes
(С)
Комфортность P
(гПа)
Po
(гПа)
Тmin
(С)
Tmax
(С)
R
(мм)
R24
(мм)
S
(см)
16 14.08 СЗ 3 н/о н/о +10.9 +8.8 87 +9 +9 1026.4 1018.8
17 14.08 СЗ 3 н/о н/о +11.2 +8.8 85 +10 +10 1026.3 1018.7
19 14.08 СЗ 3 н/о н/о +10.3 +8.7 90 +8 +8 1026.2 1018.6
20 14.08 З 4 н/о н/о +11.8 +9.0 83 +10 +10 1026.8 1019.2
22 14.08 З 3 н/о н/о +15.3 +9.9 70 +15 +15 1027.5 1019.9
23 14.08 СЗ 2 н/о н/о +18.1 +10.2 60 +19 +19 1027.7 1020.1
01 15.08 СЗ 4 н/о н/о +23.0 +11.7 49 +25 +25 комфорт 1026.4 1018.8
02 15.08 С 4 н/о н/о +23.8 +10.5 43 +25 +25 комфорт 1025.3 1017.7 +10.3
04 15.08 СВ 5 н/о н/о +22.2 +11.3 50 +24 +24 комфорт 1023.3 1015.8
05 15.08 С 4 н/о н/о +21.9 +12.5 55 +24 +24 комфорт 1022.8 1015.3
07 15.08 С 5 н/о н/о +17.9 +10.8 63 +17 +17 1022.4 1014.9
08 15.08 С 5 н/о н/о +16.8 +11.9 73 +16 +16 1022.8 1015.3
10 15.08 С 6 н/о н/о +15.5 +10.9 74 +14 +14 1023.0 1015.5
11 15.08 С 5 н/о н/о +15.0 +10.0 72 +14 +14 1023.0 1015.5
13 15.08 СЗ 4 н/о н/о +13.3 +9.5 78 +12 +12 1023.3 1015.8
14 15.08 СЗ 3 н/о н/о +12.9 +9.4 79 +12 +12 1023.2 1015.7 +25.3
16 15.08 СЗ 1 н/о н/о +13.8 +7.6 66 +14 +14 1022.3 1014.8
17 15.08 З 3 н/о н/о +13.7 +7.2 65 +13 +13 1021.9 1014.4
19 15.08 СЗ 5 н/о н/о +14.4 +7.9 65 +13 +13 1021.8 1014.3
20 15.08 СЗ 5 н/о н/о +14.5 +7.5 63 +13 +13 1022.3 1014.8
22 15.08 СЗ 5 н/о н/о +17.9 +7.6 51 +18 +18 1022.9 1015.4
23 15.08 СЗ 4 н/о н/о +20.4 +8.4 46 +22 +22 комфорт 1022.9 1015.4
01 16.08 СЗ 4 н/о н/о +23.9 +8.3 37 +24 +24 комфорт 1021.5 1014.0
02 16.08 СЗ 3 н/о н/о +24.9 +7.1 32 +25 +25 комфорт 1020.5 1013.0 +12.9
04 16.08 С 3 н/о н/о +25.6 +6.3 29 +25 +25 комфорт 1018.2 1010.7
05 16.08 С 5 н/о н/о +23.0 +10.4 45 +25 +25 комфорт 1017.7 1010.2
07 16.08 С 6 н/о н/о +19.3 +9.8 54 +20 +20 1017.5 1010.0
08 16.08 С 5 н/о н/о +17.8 +10.4 62 +17 +17 1017.6 1010.1
10 16.08 С 5 н/о н/о +16.8 +9.5 62 +16 +16 1018.6 1011.1
11 16.08 С 4 н/о н/о +15.8 +9.7 67 +15 +15 1018.6 1011.1
13 16.08 СЗ 4 н/о н/о +14.3 +8.5 68 +13 +13 1018.4 1010.9
14 16.08 СЗ 3 н/о н/о +14.4 +7.5 63 +14 +14 1018.2 1010.7 +27.3
16 16.08 СЗ 4 н/о н/о +15.8 +5.7 51 +15 +15 1017.3 1009.8
17 16.08 СЗ 4 н/о н/о +14.2 +6.1 58 +13 +13 1016.7 1009.2
19 16.08 СЗ 4 н/о н/о +13.3 +6.4 63 +12 +12 1016.7 1009.2
20 16.08 З 5 н/о н/о +14.6 +5.9 56 +13 +13 1017.5 1010.0
22 16.08 СЗ 3 н/о н/о +18.7 +7.8 49 +19 +19 1018.6 1011.1
23 16.08 СЗ 4 н/о н/о +21.2 +7.8 42 +22 +22 комфорт 1018.5 1011.0
01 17.08 СЗ 3 н/о н/о +24.6 +6.8 32 +25 +25 комфорт 1017.7 1010.2
02 17.08 З 3 н/о н/о +25.9 +4.9 26 +25 +25 комфорт 1016.7 1009.2 +13.1
04 17.08 В 4 н/о н/о +24.9 +6.1 30 +25 +25 комфорт 1015.3 1007.8
05 17.08 СВ 5 н/о н/о +23.9 +4.8 29 +24 +24 комфорт 1015.2 1007.7
07 17.08 С 4 н/о н/о +20.0 +13.0 64 +22 +22 комфорт 1015.6 1008.1
08 17.08 С 4 н/о н/о +17.9 +11.9 68 +18 +18 1016.1 1008.6
10 17.08 ЮВ 8 н/о н/о +18.1 +13.6 75 +17 +17 1019.3 1011.8
11 17.08 ЮВ 7 н/о н/о +17.8 +12.9 73 +17 +17 1019.9 1012.4
13 17.08 ЮВ 7 н/о н/о +17.5 +12.4 72 +17 +17 1020.5 1013.0
14 17.08 Ю 5 н/о н/о +15.5 +11.3 76 +14 +14 1020.5 1013.0 +27.6
16 17.08 З 4 н/о н/о +14.2 +10.6 79 +13 +13 1020.8 1013.3
17 17.08 ЮЗ 5 н/о н/о +14.0 +10.2 78 +12 +12 1020.0 1012.5
19 17.08 ЮЗ 5 н/о н/о +13.0 +8.7 75 +11 +11 1020.5 1013.0
20 17.08 ЮЗ 4 н/о н/о +12.8 +8.3 74 +11 +11 1020.8 1013.3
22 17.08 ЮЗ 4 н/о н/о +15.5 +9.0 65 +15 +15 1021.6 1014.1
23 17.08 ЮЗ 3 н/о н/о +18.0 +11.1 64 +18 +18 1021.7 1014.2
01 18.08 В 3 н/о н/о +20.2 +12.9 63 +22 +22 комфорт 1020.7 1013.2
02 18.08 В 4 н/о н/о +19.1 +12.1 64 +20 +20 1019.7 1012.2 +12.8
04 18.08 В 5 н/о н/о +19.9 +13.6 67 +22 +22 комфорт 1017.9 1010.4
05 18.08 СВ 5 н/о н/о +19.5 +13.9 70 +21 +21 комфорт 1017.2 1009.7
07 18.08 С 3 н/о н/о +17.9 +14.0 78 +18 +18 1016.8 1009.3
08 18.08 С 5 н/о н/о +16.8 +13.3 80 +16 +16 1016.6 1009.1
10 18.08 С 5 н/о н/о +16.6 +13.5 82 +16 +16 1017.3 1009.8
11 18.08 С 4 н/о н/о +15.9 +13.0 83 +15 +15 1017.3 1009.8
13 18.08 С 4 н/о н/о +14.4 +12.6 89 +13 +13 1016.4 1008.9
14 18.08 С 2 н/о н/о +14.1 +12.5 90 +14 +14 1016.0 1008.5 +21.2
16 18.08 С 2 н/о н/о +13.6 +12.3 92 +13 +13 1014.7 1007.2
17 18.08 С 3 н/о н/о +13.5 +12.4 93 +12 +12 1014.0 1006.5
19 18.08 СЗ 4 н/о н/о +12.5 +11.6 94 +11 +11 1012.8 1005.3
20 18.08 СЗ 4 н/о н/о +12.8 +11.9 94 +11 +11 1013.0 1005.5
22 18.08 СЗ 7 н/о н/о +18.9 +12.6 67 +19 +19 1013.5 1006.0
23 18.08 СЗ 7 н/о н/о +21.3 +12.2 56 +23 +23 комфорт 1013.6 1006.1
01 19.08 СЗ 5 н/о н/о +26.1 +9.0 34 +26 +26 жарко 1013.4 1005.9
02 19.08 СЗ 5 н/о н/о +27.5 +7.9 29 +27 +27 жарко 1012.5 1005.0 +12.3
04 19.08 ЮВ 5 н/о н/о +23.6 +11.3 46 +25 +25 комфорт 1011.7 1004.2
05 19.08 ЮВ 8 н/о н/о +21.1 +14.3 65 +24 +24 комфорт 1012.8 1005.3
07 19.08 ЮВ 7 н/о н/о +17.5 +11.1 66 +17 +17 1015.7 1008.2
08 19.08 ЮВ 6 н/о н/о +16.7 +9.6 63 +16 +16 1017.0 1009.5
10 19.08 ЮВ 5 н/о н/о +15.9 +8.2 60 +15 +15 1019.2 1011.7
11 19.08 ЮЗ 3 н/о н/о +14.9 +8.2 64 +14 +14 1020.0 1012.5
13 19.08 ЮЗ 6 н/о н/о +12.5 +2.9 52 +10 +10 1021.2 1013.7
14 19.08 ЮЗ 5 н/о н/о +11.4 -1.4 41 +9 +9 1021.8 1014.3 +29.3
16 19.08 ЮЗ 6 н/о н/о +10.1 -4.3 36 +7 +7 1022.4 1014.9
17 19.08 ЮЗ 5 н/о н/о +9.4 -4.9 36 +7 +7 1022.4 1014.9
19 19.08 ЮЗ 5 н/о н/о +8.4 -5.1 38 +5 +5 1023.0 1015.5
20 19.08 ЮЗ 5 н/о н/о +8.3 -5.2 38 +5 +5 1023.7 1016.2
22 19.08 ЮЗ 5 н/о н/о +10.5 -3.6 37 +8 +8 1025.2 1017.6
23 19.08 ЮЗ 5 н/о н/о +12.7 -2.7 34 +11 +11 1025.3 1017.7
01 20.08 Ю 2 н/о н/о +16.9 -2.2 27 +17 +17 1024.4 1016.9
02 20.08 ЮВ 4 н/о н/о +17.4 -0.3 30 +17 +17 1023.4 1015.9 +8.1
04 20.08 В 4 н/о н/о +17.1 +1.1 34 +17 +17 1021.4 1013.9
05 20.08 В 4 н/о н/о +16.7 +2.0 37 +16 +16 1021.0 1013.5
07 20.08 С 3 н/о н/о +14.4 +3.5 48 +14 +14 1020.6 1013.1
08 20.08 С 3 н/о н/о +12.4 +3.9 56 +11 +11 1020.7 1013.2
10 20.08 С 5 н/о н/о +9.9 +3.0 62 +7 +7 1021.0 1013.5
11 20.08 С 4 н/о н/о +9.4 +2.3 61 +7 +7 1020.5 1013.0
13 20.08 З 5 н/о н/о +12.4 -1.1 39 +11 +11 1020.0 1012.5
14 20.08 З 4 н/о н/о +12.3 -3.5 33 +11 +11 1019.9 1012.4 +18.7
16 20.08 З 5 н/о н/о +11.6 -3.3 35 +10 +10 1019.0 1011.5
17 20.08 З 4 н/о н/о +10.7 -2.7 39 +9 +9 1018.3 1010.8
19 20.08 З 4 н/о н/о +10.7 -3.0 38 +9 +9 1018.2 1010.7
20 20.08 З 5 н/о н/о +10.3 -2.7 40 +8 +8 1018.4 1010.9
22 20.08 СЗ 3 н/о н/о +14.0 -0.1 38 +13 +13 1019.0 1011.5
23 20.08 З 4 н/о н/о +16.9 -0.3 31 +17 +17 1018.6 1011.1
01 21.08 З 4 н/о н/о +21.3 +1.0 26 +21 +21 комфорт 1017.1 1009.6
02 21.08 СЗ 4 н/о н/о +24.7 +2.8 24 +24 +24 комфорт 1015.7 1008.2 +8.9
04 21.08 СЗ 4 н/о н/о +27.6 +4.0 22 +26 +26 жарко 1013.4 1005.9
05 21.08 СЗ 4 н/о н/о +27.5 +2.6 20 +26 +26 жарко 1012.5 1005.0
07 21.08 С 4 н/о н/о +19.0 +10.3 57 +20 +20 1012.7 1005.2
08 21.08 С 4 н/о н/о +16.7 +11.0 69 +16 +16 1013.2 1005.7
10 21.08 Ю 4 н/о н/о +15.3 +12.4 83 +14 +14 1015.3 1007.8
11 21.08 ЮЗ 4 н/о н/о +14.8 +11.4 80 +14 +14 1015.7 1008.2
13 21.08 З 4 н/о н/о +14.4 +10.6 78 +13 +13 1015.2 1007.7
14 21.08 З 4 н/о н/о +13.4 +8.5 72 +12 +12 1014.8 1007.3 +28.0

 

Местоположение метеостанции Эванс Хед (Новый Южный Уэльс, Австралия): широта -29.18 долгота 153.40 высота над уровнем моря 63 м.

В архиве по умолчанию представлена погода в Эванс Хед за последнюю неделю. Архивные данные за месяц целиком и за предыдущие месяцы, начиная с января 2011 года, Вы можете получить, выбрав интересующий диапазон дат из раскрывающегося списка и нажав кнопку "Ввод!".


*Определитесь, кто Вы:
робот инопланетянин человек

Внимание! Время в таблицах - всемирное. Для получения местного времени необходимо прибавить поправку, которая равна 10 ч.

Смотрите также архив погоды в соседних городах и на ближайших метеорологических станциях:

Погода в Ямбе (Новый Южный Уэльс, Австралия) (28 км)
Погода в Баллине (Новый Южный Уэльс, Австралия) (42 км)
Погода в Лисморе (Новый Южный Уэльс, Австралия) (44 км)
Погода в Казино (Новый Южный Уэльс, Австралия) (48 км)
Погода в Графтоне (Новый Южный Уэльс, Австралия) (64 км)
Погода на Мысе Байрон (Новый Южный Уэльс, Австралия) (65 км)
Погода в Графтон аэропорту (Новый Южный Уэльс, Австралия) (73 км)
Погода в Кулангатта аэропорту (Новый Южный Уэльс, Австралия) (113 км)
Погода в Кофс-Харборе (Новый Южный Уэльс, Австралия) (129 км)
Погода в Голд-Косте (Квинсленд, Австралия) (139 км)

Пояснения к столбцам:

Ветер - указаны скорость ветра в м/с - средняя за 10 мин, порывы в срок и между сроками (в фигурных скобках) и направление, откуда дует ветер: С - северный, СВ - северо-восточный, В - восточный, ЮВ - юго-восточный, Ю - южный, ЮЗ - юго-западный, З - западный, СЗ - северо-западный.
Видимость - горизонтальная дальность видимости в метрах или километрах. При видимости от 1 до 10 км при отсутствии осадков обычно наблюдается дымка, при ухудшении видимости до 1 км и менее - туман. В сухую погоду видимость может ухудшаться дымом, пылью или мглою.
Явления - указаны атмосферные явления, наблюдавшиеся в срок или в последний час перед сроком; фигурными скобками обозначены явления, наблюдавшиеся между сроками (за 1-3 часа до срока); квадратными скобками обозначены град или гололедные отложения с указанием их диаметра в мм.
Облачность - указаны через наклонную черту общая и нижняя облачность в баллах и высота нижней границы облаков в метрах; квадратными скобками обозначены формы облаков: Ci - перистые, Cs - перисто-слоистые, Cc - перисто-кучевые, Ac - высококучевые, As - высокослоистые, Sc - слоисто-кучевые, Ns - слоисто-дождевые, Cu - кучевые, Cb - кучево-дождевые. Подробнее классификацию облаков см. в Атласе облаков (PDF).
T - Температура воздуха - температура, измеренная на высоте 2 м над землей.
Td - Температура точки росы - температура, при понижении до которой содержащийся в воздухе водяной пар достигнет насыщения.
f - Относительная влажность воздуха - влажноcть воздуха, измеренная на высоте 2 м над землей.
Te - Эффективная температура - температура, которую ощущает одетый по сезону человек в тени. Характеристика душности погоды. При расчете учитывается влияние влажности воздуха и скорости ветра на теплоощущения человека.
Tes - Эффективная температура на солнце - температура, которую ощущает человек, с поправкой на солнечный нагрев. Характеристика знойности погоды. Зависит от высоты солнца над горизонтом, облачности и скорости ветра. Ночью, в пасмурную погоду, а также при ветре 12 м/с и более поправка равна нулю.
P - Атмосферное давление - приведенное к уровню моря атмосферное давление.
Po - Атмосферное давление - измеренное на уровне метеостанции атмосферное давление.
Tmin - Минимальная температура - минимум температуры воздуха на высоте 2 м над землей.
Tmax - Максимальная температура - максимум температуры воздуха на высоте 2 м над землей.
R - Количество осадков - Количество выпавших осадков за период времени, мм. При наведении курсора мыши на число - период времени, за который выпало указанное количество осадков.
R24 - Количество осадков - Количество выпавших осадков за 24 часа, мм.
S - Снежный покров - Высота снежного покрова, см. При наведении курсора мыши на число - состояние снежного покрова и степень покрытия местности в баллах.